www.pogodaiklimat.ru

Погода и климат >> Архив погоды >> Германия >> Оффенбах


ПОГОДА в Оффенбахе

  • Прогноз погоды в Оффенбахе
  • Монитор погоды в Оффенбахе

АРХИВ ПОГОДЫ в Оффенбахе

Время (UTC), дата Ветер
(напр.,м/с)
 
Видим.   Явления Облачность Т
(С)
Тd
(С)
f
(%)
Тe
(С)
Тes
(С)
Комфортность P
(гПа)
Po
(гПа)
Тmin
(С)
Tmax
(С)
R
(мм)
R24
(мм)
S
(см)
01 12.08 Ю 1-3
{3}
45 км 8/0
[]
+13.7 +12.5 92 +14 +14 1017.3 1002.9
02 12.08 Ю 2-3
{3}
40 км 10/0
[]
+14.0 +12.9 93 +13 +13 1017.4 1003.0
03 12.08 ЮЗ 2 45 км 9/0
[]
+14.2 +12.6 90 +14 +14 1017.5 1003.1
04 12.08 ЮЗ 1-4
{4}
40 км 10/0
[]
+14.3 +12.4 88 +15 +15 1017.7 1003.3
05 12.08 штиль 0-2
{4}
40 км 6/0
[]
+13.9 +12.3 90 +13 +14 1017.8 1003.4
06 12.08 Ю 1 35 км ясно +15.4 +12.7 84 +16 +18 1017.7 1003.4 +13.3 +18.0
07 12.08 ЮЗ 2-3
{4}
55 км 9/0
[]
+17.2 +12.8 75 +18 +20 1017.3 1003.1
08 12.08 Ю 2-5
{5}
40 км 1/0
[]
+18.2 +12.4 69 +19 +26 1017.3 1003.1
09 12.08 Ю 3 35 км 9/9 720 м
[]
+19.6 +12.9 65 +21 +22 комфорт 1017.8 1003.7
10 12.08 Ю 3-5
{5}
35 км 10/10 960 м
[]
+20.2 +12.3 60 +22 +22 комфорт 1017.5 1003.4
11 12.08 ЮЗ 3-5
{5}
35 км 10/10 1050 м
[]
+20.7 +12.7 60 +23 +23 комфорт 1017.2 1003.2
12 12.08 Ю 3 60 км 10/10 1140 м
[]
+21.6 +12.7 57 +24 +24 комфорт 1016.1 1002.1
13 12.08 ЮЗ 3-6
{6}
50 км 10/0
[]
+22.4 +11.8 51 +25 +30 комфорт 1015.7 1001.7
14 12.08 Ю 3-8
{8}
40 км 5/0
[]
+23.3 +10.4 44 +25 +32 комфорт 1014.9 1001.0
15 12.08 ЮЗ 4-6
{8}
50 км 8/8 1500 м
[]
+23.2 +10.7 45 +25 +26 комфорт 1014.3 1000.4
16 12.08 ЮЗ 3-5
{7}
>70 км 9/9 1500 м
[]
+23.5 +10.5 44 +25 +25 комфорт 1013.8 999.9
17 12.08 Ю 2-6
{6}
45 км 8/8 1500 м
[]
+21.8 +11.2 51 +24 +24 комфорт 1014.1 1000.1
18 12.08 З 1 14 км слаб. дождь 9/9 930 м
[]
+15.1 +14.5 96 +16 +16 1016.3 1002.0 +14.9 +24.5 6
19 12.08 Ю 1-2
{5}
35 км в посл. час дождь {морось} 10/0 2000 м
[]
+15.0 +14.2 95 +15 +15 1016.6 1002.3
20 12.08 Ю 2-3
{3}
30 км в посл. час дождь 6/0
[]
+14.6 +13.9 96 +14 +14 1016.7 1002.4
21 12.08 СЗ 1-2
{5}
13 км {дождь, морось} ясно +13.6 +13.4 99 +14 +14 1017.2 1002.8 1
22 12.08 Ю 1-1
{2}
2000 м в посл. час туман {дымка} ясно +13.0 +12.9 99 +13 +13 1017.6 1003.2
23 12.08 Ю 2-3
{3}
45 км в посл. час туман {дымка} 9/0 2000 м
[]
+13.4 +12.9 97 +13 +13 1017.4 1003.0
00 13.08 ЮЗ 1-1
{5}
23 км {дождь, морось} 9/0 2000 м
[]
+12.9 +12.5 97 +13 +13 1017.5 1003.1
01 13.08 Ю 1-2
{2}
30 км ясно +13.0 +12.7 98 +13 +13 1017.3 1002.9
02 13.08 ЮВ 1-1
{2}
4500 м в посл. час туман {дымка} 1/1 1500 м
[]
+12.0 +11.9 99 +12 +12 1017.1 1002.6
03 13.08 ЮЗ 1-3
{3}
27 км в посл. час туман {дымка} 6/6 1500 м
[]
+13.0 +12.7 98 +13 +13 1017.1 1002.7 0.0
04 13.08 Ю 1-2
{2}
17 км ясно +12.4 +12.2 99 +12 +12 1017.4 1002.9
05 13.08 ЮЗ 1-4
{4}
30 км 8/8 400 м
[]
+13.0 +12.4 96 +13 +13 1017.7 1003.3
06 13.08 ЮЗ 2 30 км {туман, дымка} 1/0
[]
+13.9 +12.6 92 +13 +15 1018.3 1003.9 +11.8 +15.2
07 13.08 ЮЗ 3-6
{6}
45 км 9/9 1500 м
[]
+15.5 +12.9 84 +15 +15 1018.7 1004.4
08 13.08 ЮЗ 4-8
{8}
60 км 6/6 540 м
[]
+16.5 +12.4 77 +16 +18 1019.3 1005.0
09 13.08 ЮЗ 3 45 км 9/9 700 м
[]
+17.0 +11.1 68 +17 +18 1019.5 1005.2
10 13.08 З 4-8
{8}
>70 км 9/9 930 м
[]
+18.1 +10.0 59 +18 +19 1019.3 1005.1
11 13.08 З 4-7
{7}
65 км 1/1 1350 м
[]
+19.7 +8.5 48 +21 +29 комфорт 1018.9 1004.8
12 13.08 З 4-7
{8}
>70 км 8/8 1500 м
[]
+20.8 +7.4 42 +22 +24 комфорт 1018.7 1004.6
13 13.08 З 2-5
{9}
>70 км 9/9 1500 м
[]
+20.1 +6.4 41 +22 +23 комфорт 1018.4 1004.3
14 13.08 ЮЗ 4-6
{8}
65 км 8/8 1500 м
[]
+21.3 +6.4 38 +22 +23 комфорт 1018.0 1003.9
15 13.08 З 4 60 км 9/0 2000 м
[]
+20.8 +5.3 36 +22 +24 комфорт 1017.8 1003.7
16 13.08 Ю 2-5
{8}
>70 км 10/0 2000 м
[]
+21.3 +3.7 31 +21 +23 комфорт 1017.6 1003.5
17 13.08 З 3-5
{6}
55 км 10/0
[]
+20.8 +5.3 36 +22 +23 комфорт 1017.5 1003.4
18 13.08 штиль 0 55 км 10/0 2000 м
[]
+20.6 +6.4 40 +21 +21 комфорт 1017.5 1003.4 +14.0 +22.1
19 13.08 ЮЗ 2-3
{5}
>70 км 9/0 2000 м
[]
+18.8 +7.3 47 +20 +20 1017.8 1003.6
20 13.08 СЗ 4-9
{10}
60 км 10/0 2000 м
[]
+16.9 +8.4 57 +16 +16 1018.9 1004.6
21 13.08 С 2-4
{10}
65 км 9/0
[]
+15.8 +9.2 65 +16 +16 1019.3 1005.0
22 13.08 В 1-2
{3}
55 км 10/0 2000 м
[]
+15.2 +9.5 69 +16 +16 1019.6 1005.2
23 13.08 ЮВ 2-2
{3}
65 км 9/9 1500 м
[]
+14.8 +10.0 73 +15 +15 1019.7 1005.3
00 14.08 Ю 1 65 км 10/10 1500 м
[]
+14.6 +10.1 74 +15 +15 1019.8 1005.4
01 14.08 штиль 0-1
{2}
60 км в посл. час дождь {морось} 10/10 450 м
[]
+13.4 +10.6 83 +13 +13 1019.4 1005.0
02 14.08 ЮВ 1-1
{1}
50 км в посл. час дождь {морось} 9/0
[]
+12.7 +10.7 88 +13 +13 1019.4 1004.9
03 14.08 Ю 1-1
{2}
50 км {дождь, морось} 9/0
[]
+12.0 +10.6 91 +12 +12 1019.4 1004.9 0.0
04 14.08 ЮЗ 1-1
{1}
40 км 8/0 2000 м
[]
+11.7 +10.7 94 +11 +11 1019.4 1004.9
05 14.08 Ю 1-1
{4}
50 км 9/9 1500 м
[]
+12.2 +10.9 92 +12 +12 1019.7 1005.2
06 14.08 ЮВ 1 45 км {дождь, морось} 10/10 960 м
[]
+13.6 +10.9 84 +14 +14 1019.8 1005.4 +11.4 +20.6
07 14.08 СВ 1-2
{2}
55 км 4/4 1080 м
[]
+15.5 +9.9 69 +16 +19 1020.3 1005.9
08 14.08 В 2-3
{4}
30 км 3/3 1000 м
[]
+17.1 +8.9 58 +17 +22 1020.2 1005.9
09 14.08 ЮЗ 1-2
{4}
50 км ясно +17.8 +10.1 61 +19 +31 опасность
простуды
1020.0 1005.8
10 14.08 ЮЗ 1-2
{4}
>70 км 5/5 1170 м
[]
+18.1 +8.5 53 +19 +27 1019.7 1005.5
11 14.08 Ю 2-3
{4}
>70 км ясно +19.2 +8.1 49 +20 +35 опасность
простуды
1019.3 1005.1
12 14.08 З 3-5
{6}
60 км 5/5 1500 м
[]
+20.6 +7.0 41 +22 +28 комфорт 1018.8 1004.7
13 14.08 ЮЗ 3-6
{9}
55 км 6/6 1500 м
[]
+21.7 +7.3 39 +23 +27 комфорт 1018.1 1004.1
14 14.08 Ю 2-4
{9}
55 км 4/4 1500 м
[]
+21.5 +8.2 42 +23 +28 комфорт 1017.7 1003.7
15 14.08 ЮЗ 3-6
{9}
>70 км 1/0
[]
+22.6 +8.4 40 +24 +29 комфорт 1017.1 1003.1
16 14.08 ЮЗ 3-6
{6}
65 км 9/9 1500 м
[]
+22.6 +9.4 43 +24 +24 комфорт 1016.8 1002.8
17 14.08 ЮЗ 2-5
{7}
>70 км 8/8 1500 м
[]
+22.0 +9.9 46 +24 +24 комфорт 1016.4 1002.4
18 14.08 Ю 1 >70 км 9/0 2000 м
[]
+21.3 +10.2 49 +23 +23 комфорт 1016.1 1002.1 +13.6 +23.1
19 14.08 ЮВ 2-3
{3}
>70 км 4/0
[]
+18.6 +11.0 61 +20 +20 1015.9 1001.8
20 14.08 Ю 2-3
{4}
60 км 9/0
[]
+17.6 +11.2 66 +18 +18 1016.3 1002.1
21 14.08 Ю 3-4
{4}
55 км 9/0
[]
+17.1 +11.1 68 +17 +17 1015.9 1001.7
22 14.08 ЮВ 3-4
{4}
55 км 9/0
[]
+16.5 +10.9 69 +16 +16 1015.7 1001.5
23 14.08 ЮВ 3-4
{4}
50 км 9/0
[]
+16.2 +10.9 71 +16 +16 1015.6 1001.3
00 15.08 ЮВ 3-4
{4}
55 км 10/0
[]
+16.2 +10.8 70 +16 +16 1015.1 1000.9
01 15.08 ЮВ 3-4
{4}
60 км 10/0 2000 м
[]
+16.2 +11.1 72 +16 +16 1014.6 1000.4
02 15.08 С 1-1
{4}
60 км в посл. час дождь 10/0 2000 м
[]
+16.2 +11.0 71 +17 +17 1014.4 1000.2
03 15.08 СВ 1-2
{4}
60 км в посл. час дождь {морось} 10/0 2000 м
[]
+15.0 +12.9 87 +15 +15 1013.6 999.3 0.0
04 15.08 штиль 0-1
{2}
19 км слаб. дождь {морось} 10/10 1500 м
[]
+14.1 +13.3 95 +14 +14 1013.2 998.9
05 15.08 ЮВ 2-4
{4}
40 км в посл. час дождь {морось} 10/0 2000 м
[]
+14.5 +13.1 91 +14 +14 1012.7 998.4
06 15.08 штиль 0 35 км в посл. час дождь {морось} 9/0 2000 м
[]
+15.2 +13.6 90 +15 +16 1012.6 998.4 +13.9 +21.4 0.8
07 15.08 Ю 1-1
{2}
30 км в посл. час дождь 10/10 1500 м
[]
+15.6 +14.6 94 +16 +16 1012.8 998.6
08 15.08 Ю 2-6
{8}
50 км в посл. час дождь {морось} 10/10 1000 м
[]
+15.9 +14.0 88 +16 +16 1012.9 998.7
09 15.08 Ю 2 55 км {дождь, морось} 10/10 800 м
[]
+17.1 +15.0 87 +17 +17 1012.6 998.5 0.0
10 15.08 Ю 2-4
{7}
40 км в посл. час морось 9/9 570 м
[]
+17.0 +14.6 86 +17 +19 1012.7 998.5
11 15.08 Ю 3-5
{7}
10 км морось {дождь} 10/10 240 м
[]
+17.3 +15.4 89 +17 +17 1012.7 998.6
12 15.08 Ю 3 40 км в посл. час морось {дождь} 10/10 270 м
[]
+18.6 +15.7 83 +20 +20 1012.6 998.5 0.0
13 15.08 Ю 3-5
{6}
65 км в посл. час дождь 8/0 2000 м
[]
+21.1 +15.9 72 +24 +30 комфорт 1012.0 998.1
14 15.08 ЮЗ 4-10
{10}
65 км слаб. дождь {морось} 10/10 1200 м
[]
+21.0 +14.1 65 +24 +24 комфорт 1012.2 998.2
15 15.08 ЮЗ 2-5
{15}
65 км в посл. час дождь {морось} 10/10 1500 м
[]
+18.0 +15.9 88 +19 +19 1012.8 998.7 1
16 15.08 ЮЗ 2-4
{9}
>70 км в посл. час дождь {морось} 9/0 2000 м
[]
+19.7 +16.1 80 +23 +25 комфорт 1012.7 998.7
17 15.08 З 8-13
{13}
>70 км 10/10 1440 м
[]
+20.2 +12.1 60 +22 +22 комфорт 1013.1 999.1
18 15.08 З 3 >70 км в посл. час дождь {морось} 10/0
[]
+18.4 +13.2 72 +19 +19 1013.7 999.6 +15.2 +21.5 0.0
19 15.08 ЮЗ 3-5
{6}
65 км в посл. час дождь 10/0 2000 м
[]
+17.5 +14.1 80 +18 +18 1014.9 1000.7
20 15.08 З 1-2
{5}
55 км 10/0
[]
+17.0 +14.7 86 +18 +18 1015.9 1001.7
21 15.08 ЮЗ 2 55 км в посл. час дождь {морось} 10/10 1500 м
[]
+16.9 +14.5 86 +17 +17 1016.3 1002.1 0.2
22 15.08 З 2-5
{5}
50 км в посл. час дождь 9/9 1500 м
[]
+16.8 +13.9 83 +17 +17 1017.0 1002.8
23 15.08 Ю 1-2
{4}
50 км в посл. час дождь 10/0 2000 м
[]
+16.4 +13.9 85 +17 +17 1017.7 1003.4
00 16.08 ЮЗ 2-4
{6}
50 км в посл. час морось {дождь} 10/10 1500 м
[]
+16.3 +13.7 85 +16 +16 1017.7 1003.4 0.0
01 16.08 ЮЗ 2-3
{5}
55 км 10/0 2000 м
[]
+16.1 +13.5 85 +16 +16 1018.2 1003.9
02 16.08 ЮЗ 2-3
{4}
45 км 5/0
[]
+14.9 +13.1 89 +15 +15 1018.1 1003.8
03 16.08 ЮЗ 1-2
{5}
45 км 9/0 2000 м
[]
+14.5 +13.5 94 +15 +15 1018.2 1003.8
04 16.08 Ю 1-2
{2}
20 км 1/0
[]
+13.4 +12.9 97 +13 +13 1018.4 1004.0
05 16.08 ЮЗ 1-4
{4}
30 км 6/0 2000 м
[]
+13.7 +13.1 96 +14 +14 1018.7 1004.3
06 16.08 Ю 1 40 км 8/0 2000 м
[]
+15.2 +13.5 90 +16 +17 1019.0 1004.7 +13.1 +18.4
07 16.08 штиль 0-1
{2}
45 км 10/10 1140 м
[]
+16.3 +13.4 83 +16 +16 1019.4 1005.1
08 16.08 ЮЗ 2-3
{4}
55 км 6/6 1050 м
[]
+18.5 +13.6 73 +20 +22 1019.1 1004.9
09 16.08 ЮЗ 2 40 км 9/9 1110 м
[]
+17.9 +13.4 75 +18 +19 1018.9 1004.7
10 16.08 Ю 3-5
{6}
60 км 8/8 870 м
[]
+20.7 +13.4 63 +24 +26 комфорт 1018.3 1004.2
11 16.08 Ю 4-7
{8}
55 км 9/9 1080 м
[]
+22.1 +12.0 53 +24 +25 комфорт 1017.8 1003.8
12 16.08 Ю 3 55 км 9/9 1320 м
[]
+22.0 +11.6 52 +24 +25 комфорт 1017.4 1003.4
13 16.08 ЮЗ 3-5
{7}
55 км 10/10 1500 м
[]
+23.0 +10.5 45 +25 +25 комфорт 1016.9 1003.0
14 16.08 ЮЗ 2-5
{6}
55 км 10/10 1500 м
[]
+22.9 +10.4 45 +25 +25 комфорт 1016.5 1002.6
15 16.08 ЮЗ 3 60 км 10/10 1500 м
[]
+22.8 +10.4 45 +25 +25 комфорт 1015.9 1002.0
16 16.08 Ю 3-7
{7}
65 км 9/9 1500 м
[]
+23.2 +10.6 45 +25 +26 комфорт 1015.4 1001.5
17 16.08 ЮЗ 2-4
{7}
65 км 10/0
[]
+23.3 +9.9 43 +25 +26 комфорт 1014.8 1000.9
18 16.08 Ю 2 50 км 10/0
[]
+22.5 +10.9 48 +25 +25 комфорт 1014.6 1000.7 +15.2 +24.2
19 16.08 ЮВ 1-2
{2}
27 км 1/0
[]
+18.2 +11.9 67 +20 +20 1014.6 1000.5
20 16.08 ЮВ 2-3
{3}
50 км 9/0
[]
+16.7 +12.5 76 +17 +17 1014.7 1000.5
21 16.08 ЮВ 2 45 км 10/0
[]
+17.2 +12.0 71 +18 +18 1014.6 1000.4
22 16.08 ЮВ 3-4
{4}
55 км 10/0
[]
+17.4 +11.9 70 +17 +17 1014.4 1000.2
23 16.08 ЮВ 2-4
{4}
45 км 10/0
[]
+16.5 +12.2 76 +17 +17 1014.0 999.8
00 17.08 ЮВ 1 50 км 10/0
[]
+16.0 +12.3 79 +17 +17 1013.6 999.4
01 17.08 ЮВ 1-2
{2}
45 км 10/0
[]
+16.0 +12.5 80 +17 +17 1013.1 998.9
02 17.08 ЮВ 1-2
{2}
50 км 10/0
[]
+15.3 +12.9 86 +16 +16 1012.8 998.6
03 17.08 ЮВ 1-2
{2}
45 км 10/0
[]
+15.7 +12.7 82 +16 +16 1012.4 998.2
04 17.08 Ю 1-1
{3}
40 км в посл. час дождь 10/0
[]
+15.6 +13.2 86 +16 +16 1011.9 997.7
05 17.08 штиль 0-1
{2}
35 км в посл. час дождь {морось} 10/0 2000 м
[]
+15.5 +13.7 89 +15 +15 1012.1 997.9
06 17.08 ЮВ 1 50 км в посл. час дождь {морось} 10/0
[]
+16.4 +13.9 85 +17 +18 1012.0 997.8 +15.1 +22.5 0.1
07 17.08 Ю 1-2
{2}
40 км в посл. час дождь 10/10 1500 м
[]
+17.5 +14.9 85 +19 +19 1012.4 998.3
08 17.08 Ю 2-5
{5}
22 км слаб. дождь 9/0 2000 м
[]
+18.3 +14.7 80 +19 +23 1012.9 998.8
09 17.08 Ю 2 40 км в посл. час дождь {морось} 10/0 2000 м
[]
+18.2 +15.8 86 +19 +24 1012.8 998.7 0.6
10 17.08 Ю 2-5
{5}
29 км слаб. дождь 10/0 2000 м
[]
+19.4 +15.8 80 +22 +28 комфорт 1012.6 998.6
11 17.08 Ю 3-5
{5}
40 км слаб. дождь {морось} 10/0 2000 м
[]
+19.7 +15.5 77 +22 +28 комфорт 1012.3 998.3
12 17.08 Ю 2 40 км в посл. час дождь {морось} 10/10 1500 м
[]
+21.0 +15.2 69 +25 +25 комфорт 1011.8 997.9 0.0
13 17.08 ЮЗ 3-8
{8}
55 км 10/10 1380 м
[]
+22.6 +14.0 58 +26 +26 жарко 1011.4 997.5
14 17.08 ЮЗ 4-7
{8}
30 км слаб. морось с дождем 10/10 1200 м
[]
+22.0 +14.1 61 +25 +25 комфорт 1011.6 997.7
15 17.08 Ю 2 21 км слаб. морось с дождем 10/10 1410 м
[]
+19.7 +15.1 75 +22 +22 комфорт 1012.0 998.0 0.2
16 17.08 Ю 3-5
{5}
60 км в посл. час дождь {морось} 10/10 1110 м
[]
+20.1 +15.3 74 +23 +23 комфорт 1011.5 997.5
17 17.08 Ю 2-4
{4}
60 км в посл. час дождь {морось} 9/9 1080 м
[]
+19.8 +15.5 76 +23 +23 комфорт 1011.8 997.8
18 17.08 Ю 1 28 км слаб. дождь {морось} 10/10 1140 м
[]
+18.4 +16.4 88 +20 +20 1012.1 998.0 +16.4 +22.9 0.4
19 17.08 Ю 2-4
{5}
35 км слаб. морось {дождь} 10/10 330 м
[]
+17.9 +16.9 94 +18 +18 1012.0 997.9
20 17.08 Ю 2-4
{6}
45 км в посл. час морось 10/10 750 м
[]
+17.7 +16.4 92 +18 +18 1011.7 997.6
21 17.08 Ю 3 45 км {дождь, морось} 10/10 870 м
[]
+17.6 +16.3 92 +18 +18 1011.6 997.5 0.3
22 17.08 ЮВ 2-3
{5}
50 км в посл. час дождь {морось} 10/10 800 м
[]
+17.4 +16.3 93 +18 +18 1010.9 996.8
23 17.08 Ю 2-3
{3}
26 км слаб. дождь {морось} 10/10 450 м
[]
+17.4 +16.2 93 +18 +18 1010.9 996.8
00 18.08 ЮВ 2 5000 м слаб. дождь {морось} 9/9 240 м
[]
+17.0 +16.7 98 +17 +17 1010.3 996.2 0.7
01 18.08 ЮВ 2-3
{3}
9000 м слаб. морось с дождем 9/9 240 м
[]
+17.0 +16.8 99 +17 +17 1009.8 995.7
02 18.08 ЮВ 2-3
{4}
10 км морось {дождь} 9/9 570 м
[]
+17.0 +16.6 97 +17 +17 1008.9 994.8
03 18.08 ЮВ 2-2
{4}
30 км в посл. час дождь {морось} 9/9 570 м
[]
+17.0 +16.6 97 +17 +17 1008.3 994.2 1
04 18.08 Ю 2-5
{5}
30 км в посл. час дождь {морось} 10/10 600 м
[]
+17.2 +16.6 96 +18 +18 1008.3 994.2
05 18.08 Ю 3-5
{7}
30 км в посл. час морось 10/10 720 м
[]
+17.5 +16.6 94 +17 +17 1008.4 994.3
06 18.08 Ю 2 35 км {дождь, морось} 10/10 300 м
[]
+18.2 +17.0 93 +19 +19 1008.7 994.7 +17.0 +18.4 0.0
07 18.08 Ю 3-5
{5}
55 км 9/9 450 м
[]
+20.4 +17.9 86 +24 +25 комфорт 1008.5 994.6
08 18.08 Ю 3-5
{5}
65 км 9/9 500 м
[]
+20.7 +18.0 85 +25 +26 комфорт 1008.1 994.2
09 18.08 Ю 3 >70 км 9/9 630 м
[]
+22.9 +18.2 75 +29 +29 очень
душно
1007.6 993.8
10 18.08 Ю 4-8
{9}
50 км 9/9 800 м
[]
+25.2 +18.9 68 +30 +31 душно 1007.2 993.5
11 18.08 Ю 6-10
{10}
45 км 6/6 1080 м
[]
+26.6 +18.5 61 +31 +34 душно 1006.8 993.2
12 18.08 ЮЗ 4 55 км 9/9 1380 м
[]
+27.3 +17.7 56 +32 +33 очень
душно
1006.7 993.1
13 18.08 З 6-12
{15}
45 км 9/9 1500 м
[]
+28.3 +16.2 48 +32 +32 душно 1006.8 993.3
14 18.08 ЮЗ 6-10
{12}
45 км 10/0
[]
+28.0 +16.0 48 +31 +33 душно 1007.1 993.5
15 18.08 З 4-8
{15}
45 км 9/9 1500 м
[]
+28.1 +16.2 48 +31 +32 душно 1007.0 993.4
16 18.08 ЮЗ 4-8
{10}
>70 км 10/0
[]
+27.5 +15.7 49 +31 +32 душно 1006.8 993.2
17 18.08 З 4-7
{16}
4000 м дождь {ливн. осадки} 10/10 300 м
[]
+20.1 +19.1 94 +24 +24 комфорт 1008.9 995.0
18 18.08 ЮЗ 3 16 км слаб. дождь 10/0
[]
+19.8 +18.7 93 +23 +23 комфорт 1009.5 995.6 +18.2 +29.5 8
19 18.08 Ю 1-2
{4}
45 км в посл. час дождь {морось} 10/0
[]
+19.0 +18.4 96 +22 +22 комфорт 1009.8 995.8
20 18.08 В 1-1
{3}
13 км в посл. час дождь {морось} 10/0
[]
+18.5 +18.2 98 +20 +20 1010.2 996.2
21 18.08 Ю 1 45 км {дождь, морось} 10/0
[]
+18.6 +18.3 98 +21 +21 комфорт 1011.2 997.2 0.4
22 18.08 СЗ 1-2
{3}
35 км 9/0
[]
+18.6 +18.2 98 +21 +21 комфорт 1011.8 997.8
23 18.08 ЮВ 1-1
{1}
7000 м в посл. час дождь {морось} 10/10 1320 м
[]
+18.0 +17.9 99 +19 +19 1012.3 998.2
00 19.08 З 1 45 км {дождь, морось} 10/10 1050 м
[]
+17.6 +16.9 96 +19 +19 1012.7 998.6 0.0

 

Местоположение метеостанции Оффенбах (Германия): широта 50.08 долгота 8.78 высота над уровнем моря 119 м.

В архиве по умолчанию представлена погода в Оффенбахе за последнюю неделю. Архивные данные за месяц целиком и за предыдущие месяцы, начиная с января 2011 года, Вы можете получить, выбрав интересующий диапазон дат из раскрывающегося списка и нажав кнопку "Ввод!".


*Определитесь, кто Вы:
робот инопланетянин человек

Внимание! Время в таблицах - всемирное. Для получения местного времени необходимо прибавить поправку, которая равна 1 ч.

Смотрите также архив погоды в соседних городах и на ближайших метеорологических станциях:

Погода во Франкфурте-на-Майне (Германия) (13 км)
Погода на Кляйнер Фельдберг (Германия) (28 км)
Погода в Михельштадте (Германия) (46 км)
Погода в Нойхюттене (Германия) (46 км)
Погода в Гисене (Германия) (56 км)
Погода на Хоэродскопфе (Германия) (58 км)
Погода в Гайзенхайме (Германия) (60 км)
Погода в Мангейме (Германия) (64 км)
Погода на Станции Neu-Ulrichstein (Германия) (76 км)
Погода в Вайбштадте (Германия) (87 км)

Пояснения к столбцам:

Ветер - указаны скорость ветра в м/с - средняя за 10 мин, порывы в срок и между сроками (в фигурных скобках) и направление, откуда дует ветер: С - северный, СВ - северо-восточный, В - восточный, ЮВ - юго-восточный, Ю - южный, ЮЗ - юго-западный, З - западный, СЗ - северо-западный.
Видимость - горизонтальная дальность видимости в метрах или километрах. При видимости от 1 до 10 км при отсутствии осадков обычно наблюдается дымка, при ухудшении видимости до 1 км и менее - туман. В сухую погоду видимость может ухудшаться дымом, пылью или мглою.
Явления - указаны атмосферные явления, наблюдавшиеся в срок или в последний час перед сроком; фигурными скобками обозначены явления, наблюдавшиеся между сроками (за 1-3 часа до срока); квадратными скобками обозначены град или гололедные отложения с указанием их диаметра в мм.
Облачность - указаны через наклонную черту общая и нижняя облачность в баллах и высота нижней границы облаков в метрах; квадратными скобками обозначены формы облаков: Ci - перистые, Cs - перисто-слоистые, Cc - перисто-кучевые, Ac - высококучевые, As - высокослоистые, Sc - слоисто-кучевые, Ns - слоисто-дождевые, Cu - кучевые, Cb - кучево-дождевые. Подробнее классификацию облаков см. в Атласе облаков (PDF).
T - Температура воздуха - температура, измеренная на высоте 2 м над землей.
Td - Температура точки росы - температура, при понижении до которой содержащийся в воздухе водяной пар достигнет насыщения.
f - Относительная влажность воздуха - влажноcть воздуха, измеренная на высоте 2 м над землей.
Te - Эффективная температура - температура, которую ощущает одетый по сезону человек в тени. Характеристика душности погоды. При расчете учитывается влияние влажности воздуха и скорости ветра на теплоощущения человека.
Tes - Эффективная температура на солнце - температура, которую ощущает человек, с поправкой на солнечный нагрев. Характеристика знойности погоды. Зависит от высоты солнца над горизонтом, облачности и скорости ветра. Ночью, в пасмурную погоду, а также при ветре 12 м/с и более поправка равна нулю.
P - Атмосферное давление - приведенное к уровню моря атмосферное давление.
Po - Атмосферное давление - измеренное на уровне метеостанции атмосферное давление.
Tmin - Минимальная температура - минимум температуры воздуха на высоте 2 м над землей.
Tmax - Максимальная температура - максимум температуры воздуха на высоте 2 м над землей.
R - Количество осадков - Количество выпавших осадков за период времени, мм. При наведении курсора мыши на число - период времени, за который выпало указанное количество осадков.
R24 - Количество осадков - Количество выпавших осадков за 24 часа, мм.
S - Снежный покров - Высота снежного покрова, см. При наведении курсора мыши на число - состояние снежного покрова и степень покрытия местности в баллах.